Location: Newark
(35.6799°N, 139.7636°E)
Time: 03:00:55
(UTC+00:00)

Courier 1B Rocket - Pass Details

Date: 12 December 2019
Orbit: 920 x 1202 km, 28.2° (Epoch: 23 January)

Event Time Altitude Azimuth Distance (km) Brightness Sun altitude
Exits shadow 20:18:58 - 237° (WSW) 3,265 7.4 -16.3°
Reaches altitude 10° 20:20:01 10° 234° (SW) 2,926 7.1 -16.1°
Maximum altitude 20:26:31 38° 169° (S) 1,517 6.3 -14.8°
Drops below altitude 10° 20:32:36 10° 103° (ESE) 2,739 8.8 -13.6°
Sets 20:35:21 0° 96° (E) 3,650 9.7 -13.1°
